Location: Roanoke
(37.2710°N, 79.9420°W)
Time: 22:15:22
(UTC-05:00)

S-56A Canister/Altair - Pass Details

Date: 22 November 2019
Orbit: 632 x 2500 km, 38.9° (Epoch: 14 December)

Event Time Altitude Azimuth Distance (km) Brightness Sun altitude
Rises 18:42:35 0° 273° (W) 5,103 13.2 -19.2°
Reaches altitude 10° 18:46:27 10° 274° (W) 3,811 12.2 -19.9°
Maximum altitude 18:55:46 79° 2° (N) 1,159 8.3 -21.7°
Enters shadow 18:58:15 42° 82° (E) 1,426 8.3 -22.2°
Drops below altitude 10° 19:01:47 10° 89° (E) 2,534 - -22.9°
Sets 19:03:55 0° 91° (E) 3,315 - -23.3°
